Wind_Speed
23 26 25 23 23 21 21 22 25 27 27 28 29 31 31 31 31 31 32 34 35 35 35 35 35 34 31 30 29 28 27 25 24 25 25 26 28 30 32 33 34 34 34
31 29 27 25 27 26 24 26 28 29 30 31 32 33 34 34 33 34 35 37 38 39 37 37 37 34 31 29 28 28 27 26 26 25 25 25 26 27 29 32 33 34 35
32 29 29 29 30 31 29 30 31 32 33 33 34 35 36 36 37 37 38 40 41 41 41 40 38 35 33 31 29 29 29 28 28 28 28 29 29 30 32 34 35 37 39
33 33 33 33 34 34 34 34 34 35 35 35 36 37 38 39 40 40 41 43 44 43 42 42 39 36 34 32 31 31 31 31 31 32 33 34 35 35 35 37 39 41 44
33 34 35 36 36 37 37 37 37 36 36 37 38 39 40 41 42 42 44 45 45 44 43 42 41 38 36 35 34 34 34 34 35 36 37 39 40 41 42 43 45 48 51
34 35 36 37 38 38 38 38 37 37 37 38 39 40 42 43 43 44 45 45 45 45 45 44 41 40 39 38 37 37 37 38 39 40 41 43 44 46 48 49 51 53 56
35 36 37 37 37 38 38 37 37 37 38 38 39 41 42 43 44 45 45 46 46 46 45 44 43 42 41 41 41 41 41 42 43 44 45 47 48 50 53 54 56 58 59
39 37 36 36 35 35 36 35 36 36 37 38 39 41 43 44 46 47 47 47 46 46 46 45 45 44 44 44 44 44 44 45 46 47 49 50 52 54 56 58 60 61 63
40 38 36 34 33 33 33 33 34 35 36 38 40 42 43 45 47 47 48 48 48 48 49 49 48 48 47 47 47 48 48 49 50 51 52 53 55 57 59 61 63 64 65
36 34 33 32 31 32 32 33 34 35 36 38 40 42 44 46 47 48 48 49 50 51 51 51 51 51 51 50 51 51 51 52 53 54 55 56 58 59 61 62 64 65 66
30 30 31 31 31 32 32 34 35 36 38 39 41 43 44 46 47 49 50 52 53 54 54 54 54 54 53 54 54 54 55 55 55 56 57 58 59 60 61 62 63 64 65
29 30 31 32 33 34 35 36 37 39 40 41 43 45 47 48 50 51 53 54 55 56 56 56 56 56 56 56 56 57 57 57 57 57 58 58 58 59 59 60 61 61 62
31 32 33 35 36 37 38 39 40 42 43 45 46 48 49 51 53 54 55 55 56 57 58 57 57 57 57 57 57 57 57 57 57 57 57 57 57 57 57 58 58 59 59
32 34 35 37 39 40 42 44 45 46 47 48 50 52 53 54 54 55 56 56 56 56 57 57 57 57 57 58 58 57 57 56 56 55 55 55 55 55 55 55 55 56 55
33 35 38 40 42 44 45 46 47 48 50 51 52 54 54 54 54 55 55 54 55 55 55 56 57 57 57 57 57 56 55 54 54 54 54 53 53 53 53 53 52 53 52
35 37 40 42 43 45 46 46 47 47 49 49 49 50 51 52 52 52 52 52 53 54 55 55 55 55 55 55 54 54 53 53 52 51 51 51 51 50 50 49 49 48 47
36 37 37 39 41 42 42 44 45 46 46 46 45 45 46 48 49 50 50 51 52 53 53 53 53 53 52 52 52 51 51 50 49 49 49 48 48 46 46 45 44 42 40
39 38 38 37 38 39 40 41 41 40 42 43 44 45 46 46 47 48 49 49 50 50 50 51 50 50 49 49 49 48 47 47 46 46 45 44 43 42 40 38 36 34 32
36 36 37 37 38 39 39 40 41 41 42 43 44 46 46 47 47 48 48 48 49 49 48 48 48 47 47 46 46 45 44 43 43 42 41 39 37 35 33 31 28 26 24
34 34 35 37 38 38 39 39 40 41 42 43 44 45 46 46 47 47 47 47 47 47 46 46 45 44 43 43 42 41 40 40 39 37 35 32 29 27 25 22 20 19 19
30 32 33 34 35 36 38 39 39 40 41 42 43 44 44 45 45 45 45 45 44 44 43 42 41 40 39 38 37 37 36 34 32 29 26 23 20 19 17 15 15 14 15
29 30 31 32 33 35 36 37 38 39 40 41 42 42 43 43 43 42 42 41 40 39 38 37 36 35 34 33 32 31 29 26 23 19 17 14 13 11 11 11 11 12 14
28 29 30 31 32 33 34 36 37 38 39 40 40 41 41 40 40 39 38 37 36 34 33 32 31 30 28 27 25 23 20 17 14 12 10 8 7 7 7 8 9 11 13
25 26 28 29 30 31 33 34 35 36 37 38 38 38 38 37 36 34 33 31 29 28 27 25 24 23 21 19 17 14 12 9 7 5 4 3 4 5 5 7 9 10 12
23 24 25 26 27 29 30 31 33 34 35 36 36 35 34 32 30 27 25 23 21 20 19 17 16 15 13 11 9 6 4 3 1 1 2 4 5 6 7 9 10 12 13
20 22 23 24 25 26 28 30 32 33 33 33 31 29 27 25 22 20 18 16 15 14 13 12 10 8 6 4 2 2 2 3 4 5 5 7 8 8 9 10 12 13 14
Wind_Direction
238 241 248 258 265 270 277 284 288 290 291 292 293 294 295 296 300 303 306 308 310 311 314 317 320 323 325 323 324 325 325 320 312 303 297 292 287 284 281 280 279 279 278
236 242 246 253 266 271 273 278 283 285 285 286 286 287 289 291 294 296 298 300 303 305 308 312 314 316 317 318 318 320 320 318 316 309 303 299 295 291 288 287 284 282 280
242 248 252 258 266 271 274 276 279 281 281 281 281 282 284 287 287 289 292 294 297 299 303 306 307 309 310 310 312 313 313 313 311 308 304 300 297 292 291 290 286 283 282
248 253 257 262 266 270 273 276 277 278 277 277 278 278 280 281 283 286 288 289 291 294 298 300 302 303 303 304 306 307 307 306 304 302 300 298 295 293 292 289 286 286 284
255 257 259 262 265 269 272 275 276 276 275 275 275 276 277 279 280 282 284 286 289 292 294 297 299 299 299 299 300 301 301 301 300 299 297 296 295 293 292 290 287 286 285
261 261 261 262 265 268 270 272 273 274 273 274 274 275 277 278 279 281 284 286 289 291 293 295 295 296 296 295 296 297 297 298 297 296 295 294 293 291 291 290 288 286 286
266 266 265 264 265 267 269 270 271 271 272 273 273 274 276 278 280 282 285 287 288 289 291 292 292 293 293 293 294 294 295 295 295 294 293 292 291 290 289 289 288 286 286
269 269 267 266 265 266 267 268 268 269 269 271 272 273 275 277 279 282 284 285 287 288 290 290 290 291 291 292 293 293 293 294 293 292 291 290 289 288 288 287 286 285 285
268 269 267 266 265 265 266 266 266 267 268 269 271 273 275 277 279 282 283 285 286 287 287 288 288 289 290 291 292 292 292 292 292 291 290 289 287 287 286 286 285 285 284
265 265 265 266 265 265 265 265 266 266 268 269 270 272 274 276 279 281 282 284 285 286 286 287 287 289 289 290 291 292 291 291 290 290 289 288 287 287 286 286 286 286 286
260 262 263 263 264 264 265 265 266 267 268 269 271 272 274 276 278 280 281 283 284 285 286 286 287 289 289 290 291 292 291 291 290 290 289 289 288 288 288 287 287 288 288
255 258 259 261 262 263 264 265 265 267 268 269 271 273 274 275 277 278 280 281 282 283 284 285 287 289 289 290 291 291 292 292 292 291 291 290 290 290 289 289 289 289 290
254 256 258 260 261 262 263 264 266 268 269 271 272 273 274 275 276 277 278 280 281 282 283 285 287 288 289 290 290 291 292 292 292 292 292 292 292 292 291 291 291 291 291
255 257 259 261 262 263 264 266 267 269 271 272 272 273 274 275 277 278 278 280 281 283 285 286 287 289 290 290 291 292 292 293 293 293 293 293 293 293 293 292 292 292 292
260 261 262 263 265 266 266 267 269 270 272 273 273 274 275 275 277 278 279 280 282 284 286 287 288 290 291 291 292 292 293 293 293 293 293 293 294 294 293 293 293 293 294
265 266 266 266 267 267 267 269 272 273 273 272 274 275 276 277 278 279 281 283 285 287 288 289 290 290 291 291 292 292 293 293 294 294 294 294 294 294 294 294 295 296 296
277 274 272 271 272 272 273 275 274 274 274 275 276 278 280 281 282 285 287 287 288 289 289 289 290 291 291 292 293 294 294 294 294 294 294 295 295 295 295 296 297 298 298
277 279 280 279 278 279 279 277 276 277 281 285 288 289 291 291 292 292 291 290 290 290 290 291 291 292 292 293 293 294 294 295 295 295 296 296 296 296 297 298 299 300 301
281 281 281 280 281 283 284 285 287 289 291 294 294 294 294 294 293 293 292 292 292 292 291 292 292 292 293 293 294 294 295 295 296 296 297 297 297 298 298 299 301 303 306
284 283 284 284 286 288 289 291 293 295 296 296 296 295 295 295 295 294 294 294 293 293 293 293 293 293 294 294 295 295 296 296 297 297 297 297 297 298 300 302 304 307 311
286 287 289 290 291 293 296 297 298 298 298 298 298 298 297 297 296 296 296 296 296 295 295 294 294 295 295 295 295 296 297 298 298 298 298 298 298 300 303 306 311 315 321
292 294 295 296 297 298 299 300 300 301 301 301 301 300 300 299 298 297 297 297 296 296 295 295 295 295 295 295 296 297 298 298 298 298 299 300 301 304 310 316 322 329 334
295 297 299 300 301 303 304 305 306 306 306 305 304 304 303 302 301 299 298 298 297 296 296 296 295 295 296 296 296 297 297 297 298 300 303 306 311 318 327 335 342 346 349
300 301 303 304 306 308 309 310 310 311 310 309 308 307 306 305 304 302 301 300 299 298 297 297 297 296 297 297 297 296 296 298 301 304 314 330 344 358 6 8 8 8 10
305 306 308 310 312 313 314 314 315 315 314 313 311 309 308 307 306 305 304 303 303 303 303 303 303 303 302 301 301 300 302 308 335 49 55 47 46 44 38 33 29 27 24
311 314 316 317 318 319 319 319 319 320 320 318 317 315 313 311 311 310 309 308 310 312 314 317 319 321 324 330 349 39 81 92 92 86 78 71 67 61 54 48 41 35 30
Height
5866 5865 5865 5865 5867 5870 5872 5872 5871 5871 5871 5871 5870 5869 5868 5867 5866 5866 5864 5862 5860 5859 5857 5855 5852 5849 5846 5842 5839 5836 5833 5831 5829 5827 5826 5826 5825 5825 5825 5824 5824 5822 5821
5859 5860 5861 5862 5863 5865 5867 5868 5867 5866 5866 5866 5865 5864 5863 5862 5861 5860 5858 5856 5854 5853 5850 5849 5846 5844 5841 5838 5835 5832 5829 5826 5824 5822 5821 5820 5820 5818 5818 5816 5815 5814 5813
5856 5858 5859 5860 5860 5860 5861 5862 5861 5860 5860 5859 5858 5857 5856 5855 5854 5853 5851 5850 5848 5846 5844 5842 5840 5838 5835 5833 5830 5827 5824 5821 5819 5817 5816 5814 5813 5811 5810 5808 5806 5804 5803
5852 5853 5854 5855 5855 5854 5854 5854 5854 5854 5853 5852 5851 5850 5849 5848 5847 5845 5844 5842 5840 5838 5836 5835 5833 5831 5829 5826 5824 5821 5818 5816 5813 5811 5808 5806 5804 5803 5801 5799 5796 5794 5792
5847 5847 5848 5848 5848 5848 5847 5847 5846 5846 5845 5844 5843 5842 5841 5840 5838 5837 5836 5834 5832 5831 5828 5827 5826 5824 5822 5819 5816 5814 5811 5808 5805 5803 5800 5797 5794 5792 5790 5788 5785 5781 5778
5839 5839 5840 5840 5840 5840 5840 5839 5839 5838 5837 5836 5835 5834 5833 5831 5829 5828 5827 5826 5824 5822 5821 5819 5817 5815 5813 5810 5808 5805 5802 5799 5796 5793 5790 5787 5784 5780 5777 5775 5772 5768 5764
5830 5831 5831 5831 5832 5832 5831 5831 5831 5830 5829 5828 5826 5825 5824 5823 5821 5819 5818 5817 5816 5814 5812 5810 5808 5806 5803 5801 5798 5795 5792 5789 5786 5782 5779 5775 5771 5768 5764 5760 5757 5754 5750
5821 5822 5822 5822 5822 5823 5823 5822 5822 5821 5821 5819 5818 5817 5816 5814 5812 5811 5809 5808 5806 5804 5802 5800 5798 5796 5793 5790 5787 5784 5781 5777 5774 5770 5766 5762 5758 5754 5749 5745 5742 5738 5734
5812 5812 5812 5813 5813 5813 5814 5814 5813 5813 5812 5811 5810 5809 5807 5805 5803 5802 5800 5798 5796 5794 5792 5790 5787 5785 5782 5778 5775 5772 5769 5765 5761 5757 5753 5749 5744 5739 5735 5730 5725 5721 5718
5802 5802 5803 5803 5804 5804 5804 5805 5805 5804 5804 5803 5802 5800 5798 5796 5794 5792 5790 5788 5785 5783 5781 5778 5775 5772 5769 5766 5762 5759 5755 5751 5747 5743 5739 5734 5729 5724 5719 5714 5708 5703 5699
5793 5794 5794 5795 5795 5796 5796 5796 5796 5795 5794 5793 5792 5791 5789 5787 5784 5782 5779 5777 5774 5771 5769 5766 5762 5759 5756 5752 5749 5745 5741 5737 5733 5728 5724 5719 5714 5709 5703 5697 5692 5686 5680
5785 5786 5786 5786 5787 5787 5787 5787 5786 5786 5785 5783 5782 5780 5778 5776 5773 5771 5768 5765 5762 5759 5756 5752 5749 5746 5742 5739 5735 5731 5727 5722 5718 5713 5708 5704 5699 5693 5687 5682 5676 5670 5664
5776 5777 5778 5778 5778 5778 5778 5777 5776 5775 5774 5772 5770 5768 5766 5763 5761 5758 5755 5752 5749 5746 5742 5739 5736 5732 5728 5725 5720 5716 5712 5707 5703 5698 5693 5689 5684 5678 5672 5667 5661 5655 5649
5767 5768 5768 5769 5768 5768 5767 5766 5765 5764 5762 5760 5758 5755 5753 5750 5748 5745 5742 5738 5735 5732 5729 5726 5722 5718 5714 5710 5705 5701 5697 5693 5688 5683 5679 5674 5669 5664 5658 5652 5646 5640 5635
5758 5759 5759 5759 5758 5757 5756 5754 5753 5751 5749 5747 5745 5742 5739 5736 5734 5731 5728 5724 5721 5718 5715 5711 5707 5703 5699 5695 5691 5687 5683 5678 5674 5669 5664 5659 5655 5649 5644 5638 5632 5627 5621
5750 5749 5749 5748 5747 5745 5744 5742 5741 5738 5736 5733 5731 5728 5725 5723 5720 5717 5714 5711 5707 5704 5701 5697 5693 5689 5685 5681 5677 5673 5669 5664 5660 5655 5651 5646 5641 5637 5630 5625 5619 5614 5608
5742 5740 5738 5737 5736 5734 5732 5730 5728 5725 5723 5720 5717 5715 5712 5709 5706 5703 5700 5697 5693 5690 5686 5683 5679 5675 5670 5667 5663 5659 5655 5651 5647 5642 5637 5632 5628 5624 5618 5613 5608 5602 5597
5733 5731 5729 5728 5726 5724 5722 5720 5717 5714 5711 5709 5706 5703 5700 5696 5693 5690 5687 5683 5679 5676 5672 5668 5665 5661 5657 5653 5649 5646 5642 5638 5634 5629 5625 5620 5616 5611 5607 5602 5598 5593 5589
5724 5723 5721 5719 5717 5715 5712 5710 5707 5704 5700 5697 5694 5691 5687 5684 5680 5676 5673 5669 5665 5661 5658 5654 5651 5648 5644 5640 5636 5633 5629 5626 5622 5617 5614 5610 5605 5601 5597 5594 5590 5587 5583
5716 5715 5713 5711 5709 5706 5703 5700 5697 5694 5690 5687 5683 5679 5675 5671 5666 5663 5659 5655 5651 5647 5644 5641 5637 5634 5631 5627 5624 5621 5617 5614 5610 5607 5603 5600 5597 5594 5590 5588 5585 5583 5580
5709 5708 5705 5703 5701 5697 5694 5691 5687 5684 5679 5675 5671 5666 5662 5658 5654 5649 5645 5642 5638 5634 5631 5628 5625 5621 5619 5616 5612 5610 5607 5604 5601 5598 5595 5593 5591 5588 5586 5584 5582 5580 5577
5702 5700 5698 5695 5692 5689 5685 5682 5678 5673 5669 5664 5659 5655 5650 5646 5642 5637 5633 5629 5626 5623 5619 5617 5614 5611 5608 5606 5603 5600 5598 5596 5594 5592 5590 5588 5587 5585 5584 5582 5580 5578 5575
5696 5694 5691 5688 5684 5680 5676 5673 5668 5663 5658 5654 5649 5644 5639 5634 5630 5626 5622 5618 5615 5612 5610 5607 5604 5602 5599 5597 5595 5593 5592 5590 5589 5588 5587 5586 5585 5584 5583 5581 5579 5577 5574
5690 5687 5684 5681 5677 5673 5669 5664 5660 5654 5649 5644 5638 5633 5628 5623 5619 5615 5612 5609 5606 5603 5601 5599 5597 5594 5593 5591 5590 5589 5588 5587 5586 5586 5585 5585 5584 5583 5582 5581 5579 5576 5573
5685 5682 5679 5675 5671 5667 5663 5658 5653 5648 5642 5635 5629 5624 5619 5614 5610 5607 5603 5601 5599 5597 5595 5593 5591 5589 5588 5587 5586 5585 5585 5585 5585 5585 5585 5585 5584 5584 5582 5581 5579 5576 5574
5680 5677 5674 5670 5666 5662 5658 5653 5647 5641 5635 5628 5622 5616 5612 5608 5604 5602 5599 5596 5595 5593 5591 5590 5588 5587 5586 5585 5585 5585 5585 5585 5586 5586 5586 5586 5585 5584 5583 5582 5580 5578 5575